Hourly Weather Farhad

Today, 23 April, Friday

Time Temperature Precipitation Wind Pressure Humidity
00:00 +13°C° 0 mm 4 mps 732 mmHg 41%
01:00 +12°C° 0 mm 4 mps 732 mmHg 42%
02:00 +12°C° 0 mm 4 mps 731 mmHg 43%
03:00 +12°C° 0 mm 4 mps 731 mmHg 43%
04:00 +11°C° 0 mm 4 mps 731 mmHg 44%
05:00 +13°C° 0 mm 4 mps 732 mmHg 41%
06:00 +14°C° 0 mm 4 mps 732 mmHg 38%
07:00 +15°C° 0 mm 4 mps 732 mmHg 35%
08:00 +18°C° 0 mm 4 mps 732 mmHg 31%
09:00 +20°C° 0 mm 3 mps 732 mmHg 26%
10:00 +24°C° 0 mm 3 mps 732 mmHg 22%
11:00 +25°C° 0 mm 2 mps 732 mmHg 19%
12:00 +26°C° 0 mm 2 mps 731 mmHg 16%
13:00 +27°C° 0 mm 1 mps 731 mmHg 13%
14:00 +28°C° 0 mm 1 mps 731 mmHg 12%
15:00 +28°C° 0 mm 1 mps 730 mmHg 11%
16:00 +28°C° 0 mm 1 mps 730 mmHg 10%
17:00 +27°C° 0 mm 2 mps 730 mmHg 15%
18:00 +25°C° 0 mm 2 mps 730 mmHg 19%
19:00 +22°C° 0 mm 3 mps 730 mmHg 23%
20:00 +21°C° 0 mm 3 mps 730 mmHg 26%
21:00 +20°C° 0 mm 4 mps 729 mmHg 29%
22:00 +19°C° 0 mm 4 mps 729 mmHg 32%
23:00 +19°C° 0 mm 4 mps 729 mmHg 32%

Tomorrow, 24 April, Saturday

Time Temperature Precipitation Wind Pressure Humidity
00:00 +18°C° 0 mm 4 mps 729 mmHg 32%
01:00 +18°C° 0 mm 3 mps 729 mmHg 32%
02:00 +17°C° 0 mm 3 mps 729 mmHg 33%
03:00 +17°C° 0 mm 3 mps 729 mmHg 33%
04:00 +17°C° 0 mm 3 mps 729 mmHg 34%
05:00 +18°C° 0 mm 2 mps 729 mmHg 32%
06:00 +19°C° 0 mm 2 mps 729 mmHg 30%
07:00 +21°C° 0 mm 1 mps 730 mmHg 29%
08:00 +22°C° 0 mm 1 mps 730 mmHg 26%
09:00 +24°C° 0 mm 1 mps 730 mmHg 22%
10:00 +23°C° 0 mm 0 mps 730 mmHg 19%
11:00 +26°C° 0 mm 1 mps 730 mmHg 17%
12:00 +27°C° 0 mm 1 mps 730 mmHg 14%
13:00 +28°C° 0 mm 2 mps 730 mmHg 12%
14:00 +28°C° 0 mm 2 mps 730 mmHg 11%
15:00 +29°C° 0 mm 2 mps 730 mmHg 11%
16:00 +29°C° 0 mm 2 mps 730 mmHg 10%
17:00 +27°C° 0 mm 2 mps 730 mmHg 12%
18:00 +26°C° 0 mm 2 mps 730 mmHg 14%
19:00 +25°C° 0 mm 3 mps 730 mmHg 16%
20:00 +24°C° 0 mm 3 mps 730 mmHg 17%
21:00 +22°C° 0 mm 3 mps 730 mmHg 19%
22:00 +22°C° 0 mm 3 mps 730 mmHg 20%
23:00 +21°C° 0 mm 3 mps 730 mmHg 24%

Day after tomorrow, 25 April, Sunday

Time Temperature Precipitation Wind Pressure Humidity
00:00 +20°C° 0 mm 3 mps 729 mmHg 27%
01:00 +19°C° 0 mm 3 mps 729 mmHg 31%
02:00 +19°C° 0 mm 3 mps 729 mmHg 31%
03:00 +19°C° 0 mm 3 mps 729 mmHg 31%
04:00 +18°C° 0 mm 3 mps 729 mmHg 32%
05:00 +19°C° 0 mm 3 mps 729 mmHg 30%
06:00 +20°C° 0 mm 3 mps 730 mmHg 28%
07:00 +22°C° 0 mm 3 mps 730 mmHg 26%
08:00 +25°C° 0 mm 2 mps 730 mmHg 23%
09:00 +27°C° 0 mm 2 mps 730 mmHg 20%
10:00 +29°C° 0 mm 2 mps 731 mmHg 18%
11:00 +30°C° 0 mm 3 mps 730 mmHg 16%
12:00 +31°C° 0 mm 3 mps 730 mmHg 15%
13:00 +33°C° 0 mm 4 mps 730 mmHg 13%
14:00 +33°C° 0 mm 5 mps 729 mmHg 13%
15:00 +33°C° 0 mm 5 mps 729 mmHg 14%
16:00 +33°C° 0 mm 6 mps 729 mmHg 14%
17:00 +30°C° 0 mm 6 mps 729 mmHg 17%
18:00 +29°C° 0 mm 5 mps 729 mmHg 20%
19:00 +27°C° 0 mm 5 mps 729 mmHg 23%
20:00 +26°C° 0 mm 4 mps 729 mmHg 25%
21:00 +25°C° 0 mm 4 mps 729 mmHg 26%
22:00 +24°C° 0 mm 3 mps 729 mmHg 28%
23:00 +24°C° 0 mm 3 mps 728 mmHg 28%

26 April, Monday

Time Temperature Precipitation Wind Pressure Humidity
00:00 +22°C° 0 mm 3 mps 728 mmHg 29%
01:00 +22°C° 0 mm 3 mps 728 mmHg 30%
02:00 +21°C° 0 mm 3 mps 728 mmHg 30%
03:00 +21°C° 0 mm 3 mps 728 mmHg 31%
04:00 +20°C° 0 mm 3 mps 727 mmHg 31%
05:00 +21°C° 0 mm 3 mps 728 mmHg 30%
06:00 +22°C° 0 mm 3 mps 728 mmHg 29%
07:00 +24°C° 0 mm 3 mps 728 mmHg 28%
08:00 +26°C° 0 mm 3 mps 728 mmHg 23%
09:00 +28°C° 0 mm 4 mps 728 mmHg 18%
10:00 +30°C° 0 mm 4 mps 728 mmHg 14%
11:00 +32°C° 0 mm 5 mps 728 mmHg 12%
12:00 +33°C° 0 mm 5 mps 727 mmHg 11%
13:00 +34°C° 0 mm 5 mps 727 mmHg 9%
14:00 +34°C° 0 mm 6 mps 727 mmHg 10%
15:00 +34°C° 0 mm 6 mps 727 mmHg 10%
16:00 +34°C° 0 mm 7 mps 726 mmHg 10%
17:00 +32°C° 0 mm 6 mps 726 mmHg 14%
18:00 +29°C° 0 mm 5 mps 726 mmHg 17%
19:00 +27°C° 0 mm 5 mps 726 mmHg 21%
20:00 +26°C° 0 mm 4 mps 726 mmHg 22%
21:00 +25°C° 0 mm 4 mps 725 mmHg 23%
22:00 +24°C° 0 mm 3 mps 725 mmHg 25%
23:00 +22°C° 0 mm 3 mps 725 mmHg 25%

27 April, Tuesday

Time Temperature Precipitation Wind Pressure Humidity
00:00 +22°C° 0 mm 4 mps 725 mmHg 26%
01:00 +21°C° 0 mm 4 mps 724 mmHg 26%
02:00 +21°C° 0 mm 4 mps 724 mmHg 28%
03:00 +21°C° 0 mm 4 mps 724 mmHg 30%
04:00 +20°C° 0 mm 4 mps 724 mmHg 32%
05:00 +22°C° 0 mm 4 mps 724 mmHg 31%
06:00 +24°C° 0 mm 3 mps 725 mmHg 29%
07:00 +25°C° 0 mm 3 mps 725 mmHg 28%
08:00 +27°C° 0 mm 3 mps 725 mmHg 25%
09:00 +30°C° 0 mm 3 mps 725 mmHg 23%
10:00 +33°C° 0 mm 3 mps 725 mmHg 20%
11:00 +34°C° 0 mm 3 mps 725 mmHg 17%
12:00 +35°C° 0 mm 3 mps 725 mmHg 14%
13:00 +36°C° 0 mm 3 mps 724 mmHg 11%
14:00 +36°C° 0 mm 3 mps 724 mmHg 10%
15:00 +36°C° 0 mm 3 mps 724 mmHg 10%
16:00 +36°C° 0 mm 2 mps 724 mmHg 9%
17:00 +34°C° 0 mm 2 mps 724 mmHg 11%
18:00 +31°C° 0 mm 1 mps 724 mmHg 13%
19:00 +29°C° 0 mm 1 mps 723 mmHg 16%
20:00 +28°C° 0 mm 1 mps 723 mmHg 16%
21:00 +28°C° 0 mm 1 mps 723 mmHg 17%
22:00 +25°C° 0 mm 0 mps 723 mmHg 17%
23:00 +27°C° 0 mm 1 mps 723 mmHg 17%

28 April, Wednesday

Time Temperature Precipitation Wind Pressure Humidity
00:00 +26°C° 0 mm 1 mps 723 mmHg 17%
01:00 +26°C° 0 mm 2 mps 723 mmHg 17%
02:00 +25°C° 0 mm 2 mps 724 mmHg 19%
03:00 +25°C° 0 mm 2 mps 724 mmHg 21%
04:00 +24°C° 0 mm 2 mps 724 mmHg 23%
05:00 +25°C° 0 mm 2 mps 724 mmHg 22%
06:00 +27°C° 0 mm 2 mps 725 mmHg 22%
07:00 +28°C° 0 mm 2 mps 725 mmHg 21%
08:00 +30°C° 0 mm 2 mps 725 mmHg 18%
09:00 +32°C° 0 mm 2 mps 725 mmHg 15%
10:00 +35°C° 0 mm 2 mps 725 mmHg 13%
11:00 +36°C° 0 mm 2 mps 725 mmHg 11%
12:00 +36°C° 0 mm 2 mps 725 mmHg 10%
13:00 +37°C° 0 mm 2 mps 725 mmHg 9%
14:00 +37°C° 0 mm 2 mps 725 mmHg 9%
15:00 +37°C° 0 mm 2 mps 724 mmHg 8%
16:00 +36°C° 0 mm 1 mps 724 mmHg 8%
17:00 +35°C° 0 mm 1 mps 724 mmHg 10%
18:00 +33°C° 0 mm 1 mps 724 mmHg 11%
19:00 +31°C° 0 mm 1 mps 724 mmHg 13%
20:00 +30°C° 0 mm 1 mps 724 mmHg 13%
21:00 +30°C° 0 mm 2 mps 724 mmHg 13%
22:00 +29°C° 0 mm 2 mps 724 mmHg 13%
23:00 +28°C° 0 mm 4 mps 725 mmHg 18%
Show more